Location: Brazeau Presbyterian Church Cemetery
(37.6613°N, 89.6502°W)
Time: 12:25:38
(UTC+00:00)

Daily predictions for brighter satellites

Satellite Brightness Start Highest point End
(mag) Time Altitude Azimuth Time Altitude Azimuth Time Altitude Azimuth
Cosmos 1933 4.4 12:01:33 16° NW 12:03:19 22° W 12:06:16 10° SW
Meteor 2-3 Rocket 4.1 12:00:21 10° SW 12:05:44 41° WNW 12:11:06 10° N
DMSP B5D1-3 4.5 12:03:04 10° SSE 12:08:11 83° WSW 12:13:19 10° NNW
USA 267 4.4 12:02:57 10° NE 12:09:13 47° SE 12:15:27 10° SSW
Cosmos 1814 Rocket 4.1 12:04:10 10° SSW 12:09:21 81° ESE 12:14:38 10° NNE
Meteor 1-26 Rocket 4.2 12:04:11 10° N 12:09:44 87° W 12:15:27 10° S
Cosmos 2219 Rocket 4.2 12:05:25 10° N 12:09:56 24° ENE 12:14:25 10° ESE
NOSS 2-1 (C) 3.7 12:06:21 12° NW 12:09:58 64° WSW 12:15:18 10° SSE
Cosmos 2322 Rocket 3.2 12:06:47 10° N 12:12:16 47° ENE 12:17:42 10° SE
CBERS-1 4.0 12:08:31 10° N 12:13:35 71° WNW 12:18:37 10° SSW
COSMO-SKYMED 1 3.3 12:10:49 10° SSW 12:14:25 29° W 12:18:03 10° NW
Cosmos 2058 Rocket 3.0 12:11:20 10° NNW 12:15:45 68° W 12:20:05 10° S
Cosmos-2242 2.9 12:13:24 10° NNW 12:17:37 70° W 12:21:46 10° S
ATLAS 2AS CENTAUR R/B 3.9 12:11:02 10° S 12:17:50 50° ESE 12:24:29 10° NE
CZ-3C R/B 4.1 12:15:03 10° SW 12:20:43 30° SSE 12:49:19 10° ESE
COSMOS 2406 4.1 12:17:07 10° WSW 12:21:46 26° WNW 12:26:26 10° N
Thor Agena Rocket 3.5 12:18:48 10° NNE 12:23:52 83° WNW 12:28:52 10° SSW
SMAP 3.1 12:19:50 10° NNE 12:24:31 87° WNW 12:29:10 10° SSW
IRIDIUM 106 4.3 12:21:19 10° S 12:26:31 75° W 12:31:45 10° N
Landsat 7 3.9 12:26:03 10° NNE 12:30:44 86° ESE 12:35:22 10° SSW
Cosmos 2082 Rocket 3.9 12:34:34 10° WNW 12:35:53 11° NW 12:37:13 10° NW
COSMOS 2455 3.8 12:31:01 10° NW 12:36:02 28° WSW 12:41:02 10° SSW
Cosmos 44 4.0 22:58:58 10° NW 23:04:15 69° WSW 23:09:34 10° SSE
ARIANE 5 R/B 3.0 23:02:06 10° SE 23:06:40 37° ENE 23:11:20 10° N
Cosmos 2227 Rocket 3.9 23:05:22 10° NNE 23:07:41 12° NE 23:10:00 10° ENE
NOSS 2-2 (D) 4.0 23:05:12 10° SW 23:08:43 40° NW 23:11:42 10° NNE
CENTAUR R/B 4.1 23:08:23 10° W 23:13:00 25° NW 23:18:30 10° NNE
Cosmos 2208 Rocket 4.3 23:10:24 10° N 23:15:17 41° ENE 23:20:10 10° SE
SL-16 R/B 3.4 23:11:21 10° N 23:17:21 52° WNW 23:23:18 10° SW
NOSS 2-2 (E) 4.0 23:15:07 10° SW 23:18:38 41° NW 23:21:38 10° NNE
ATLAS CENTAUR R/B 2.3 23:16:33 10° N 23:18:44 17° NE 23:20:54 10° E
Cosmos 1743 2.8 23:17:56 10° NNE 23:20:57 35° E 23:23:56 10° SSE
Cosmos 1697 Rocket 3.3 23:16:16 10° S 23:21:18 36° ESE 23:26:22 10° NE
BlueWalker 3 3.1 23:18:22 10° NNW 23:21:20 23° NNE 23:24:05 11° E
Cosmos 1484 Rocket 4.0 23:18:18 10° S 23:21:40 42° W 23:25:02 10° NNW
Cosmos 1626 Rocket 3.4 23:19:55 10° N 23:24:16 82° E 23:28:32 10° S
SMAP 3.0 23:20:50 10° SSE 23:25:27 76° ENE 23:30:07 10° N
Cosmos 1606 Rocket 4.3 23:23:21 10° SSE 23:27:14 32° E 23:31:10 10° NNE
Cosmos 1461 2.7 23:24:29 10° SSW 23:28:15 62° ESE 23:32:06 10° NE
Radarsat 4.5 23:23:19 10° SSE 23:28:27 72° ENE 23:33:37 10° N
Gbstr 26 Del rocket 2.9 23:24:17 10° SW 23:28:28 59° SE 23:31:38 14° ENE
SAR-Lupe-3 4.3 23:26:11 10° NNE 23:28:32 34° E 23:30:53 10° SSE
Cosmos 2151 3.3 23:25:26 10° N 23:29:23 41° E 23:33:19 10° SSE
Landsat 7 3.7 23:26:56 10° SSE 23:31:31 66° ENE 23:36:08 10° N
IRS-1C 4.1 23:26:36 10° SSE 23:31:50 65° ENE 23:37:07 10° N
Meteor 1-20 Rocket 4.3 23:29:01 10° N 23:34:17 48° ENE 23:39:32 10° SSE
Cosmos 1544 Rocket 4.3 23:31:51 10° SSW 23:36:07 54° W 23:40:27 10° N
Thor Agena Rocket 4.0 23:32:59 10° S 23:38:11 66° WSW 23:43:21 10° NNW
Cosmos 1733 2.8 23:39:37 10° NNW 23:41:24 40° W 23:43:11 10° SSW
SAR-Lupe-4 3.4 23:38:40 10° SSE 23:42:12 84° ENE 23:45:46 10° N
Okean 1-7 Rocket 3.9 23:38:13 10° N 23:42:24 42° E 23:46:31 10° SSE
SAR-Lupe-1 4.0 23:46:09 10° SSE 23:49:43 89° ESE 23:53:20 10° NNW
BREEZE-M DEB (TANK) 3.3 23:50:58 10° NW 23:52:01 14° NNW 23:52:22 13° N
Cosmos 1503 Rocket 4.1 23:47:40 10° SSW 23:52:56 79° WNW 23:58:11 10° NNE
Cosmos 1726 Rocket 3.9 23:49:10 10° SSE 23:53:36 48° E 23:58:04 10° NNE
